Погода в Потапове

Россия / Ростовская область     47°28′13″N   41°56′40″E
темп.,
°C
ветер,
м/с
пор.,
м/с
влажн.,
%
обл.,
%
осадки,
мм/ч
давл.,
гПа
погр.,
м
25 февраля, чт
чт2500:00−14ююв247984 0.0 1040129
03:00−13ююв237983 0.0 1039171
06:00−13ююв347293 0.0 1038235
09:00−12ю357486 0.0 1037267
12:00−7ююз466686 0.0 1035421
15:00−5юз467292 0.0 1032431
18:00−6юз4779100 0.0 1030211
21:00−5юз61370100 0.0 1028385
26 февраля, пт
пт2600:00−3зюз71585100 0.1 1025448
03:000з81694100 1.3 1023478
06:00+1з81495100 1.3 1023412
09:00+1з71397100 1.9 1022346
12:00+2з612100100 0.2 1022339
15:00+3зюз612100100 0.2 1021365
18:00+3з61198100 0.0 1020312
21:00+3зюз61297100 0.0 1020346
27 февраля, сб
сб2700:00+4зюз7159596 0.0 1018526
03:00+4з7169598 0.1 1017619
06:00+4зюз61496100 0.3 1015445
09:00+3зюз61395100 0.3 1015423
12:00+4зюз61296100 0.4 1013441
15:00+4з51296100 0.9 1012412
18:00+3зюз41098100 1.6 1011296
21:00+2з3899100 2.6 1011242
28 февраля, вс
вс2800:00+2з4996100 0.2 1011230
03:000з3596100 0.2 1012147
06:00−1з489168 0.0 1012172
09:00+1зсз589369 0.0 1013435
12:00+2зсз5786100 0.1 1014658
15:00+3сз577499 0.2 10151010
18:00+1сз477889 0.1 1016253
21:00−2ссз238182 0.1 101960
1 марта, пн
пн100:00−2ссз23801 0.0 102067
03:00−2сз247921 0.0 1021247
06:00−3сз348174 0.0 1022474
09:00−1сз347078 0.0 1024768
12:00−1ссз3465100 0.0 1025884
15:000ссз3462100 0.1 1026995
18:00−1сз2467100 0.0 1027808
21:00−1ссз2466100 0.0 1029783